SCP
0 0 0 0 0 0 0 0 0 0 0 0 0 1 1 1 0 0 0 0 0 0 0 1 1 0 1 1 1 1 1 1 1 1 1 1 1 1 1 1 1 1 1 1 1 1 1 1 1
1 0 0 0 0 0 0 0 0 0 0 0 1 1 1 1 1 0 0 1 1 1 1 1 1 1 1 1 1 1 1 1 1 1 1 1 1 1 1 1 1 1 1 1 1 1 1 1 1
1 1 0 0 0 0 0 0 0 0 0 0 1 1 1 1 1 0 1 1 1 1 1 1 1 1 1 1 1 1 1 1 1 1 1 1 1 1 1 1 1 1 1 1 1 1 1 1 1
1 0 0 0 0 0 0 0 0 0 0 1 1 2 1 1 1 1 1 1 1 1 1 1 1 1 1 1 1 1 1 1 1 1 1 1 1 1 1 1 1 1 1 1 1 1 1 1 1
0 0 0 0 0 0 0 0 0 0 0 1 2 2 2 1 1 1 1 1 1 1 1 1 1 1 1 1 1 2 1 1 1 1 1 1 1 1 1 1 1 1 1 1 1 1 1 1 1
0 0 0 0 0 0 0 0 0 0 1 1 2 3 2 1 1 2 2 1 1 1 1 1 1 1 1 1 2 2 1 1 1 1 0 1 1 1 1 0 0 1 1 1 1 1 1 1 1
0 0 0 0 0 0 0 0 0 0 1 1 2 2 2 1 1 2 2 1 1 1 1 1 1 1 1 1 2 1 1 1 1 0 1 1 1 0 0 0 1 1 1 1 1 1 1 1 1
0 0 0 0 0 0 0 0 0 1 1 1 1 1 1 2 2 2 2 1 1 1 1 1 1 1 1 1 1 1 1 1 0 0 1 1 0 0 0 1 1 1 1 1 1 1 1 1 1
0 0 0 0 0 0 0 0 1 1 1 1 2 2 2 3 3 3 2 2 1 1 1 1 1 1 1 1 1 1 1 0 0 0 0 0 0 0 0 1 1 1 1 0 0 1 1 1 1
0 0 0 0 0 0 0 1 1 2 2 2 2 3 3 4 4 4 3 2 1 1 1 1 1 1 1 0 1 0 0 0 0 0 0 0 0 0 0 1 1 1 0 0 0 0 0 0 0
0 0 0 0 0 0 0 1 1 1 1 1 2 3 4 5 5 4 2 2 1 1 1 1 1 1 1 0 0 0 0 0 0 0 0 0 0 0 0 1 0 0 0 0 0 0 0 0 0
1 0 0 0 0 0 0 0 1 1 1 1 1 3 4 6 6 5 3 2 2 1 1 1 1 1 1 1 1 0 0 0 0 0 0 0 0 0 0 0 0 0 0 0 0 0 0 0 0
1 0 0 0 0 0 0 0 0 1 1 1 1 2 3 5 6 5 3 2 2 2 1 1 1 1 1 1 1 1 0 0 0 0 0 0 0 0 0 0 0 0 0 0 0 0 0 0 0
1 1 0 0 0 0 0 0 1 1 1 1 1 2 2 3 4 4 3 3 3 2 2 1 1 1 1 1 1 1 0 0 0 0 0 0 0 0 0 0 0 0 0 0 0 0 0 0 0
1 1 0 0 0 0 0 0 1 1 1 1 1 1 1 1 2 2 3 4 3 3 3 2 2 1 1 1 1 1 0 0 0 0 1 1 1 1 1 0 0 0 0 0 0 0 0 0 0
1 1 0 0 0 0 0 0 1 1 1 1 1 1 1 1 1 2 3 4 5 4 3 2 2 1 1 1 1 1 0 0 0 0 1 1 1 1 1 0 0 0 0 0 0 0 0 0 0
1 0 0 0 0 0 0 0 0 1 1 1 1 1 1 1 1 2 3 5 6 5 4 3 2 2 1 1 1 1 0 0 0 0 1 1 1 1 1 1 0 0 0 0 0 0 0 0 0
0 0 0 0 1 1 1 0 0 1 1 1 1 1 1 1 1 1 3 5 6 6 4 3 2 2 2 1 1 1 0 0 0 0 0 1 1 1 1 1 1 0 0 0 0 0 0 0 0
0 0 0 0 0 1 1 1 0 0 1 1 1 1 1 1 1 1 2 4 5 5 4 3 2 2 2 1 1 1 0 0 0 0 0 1 1 1 1 1 1 0 0 0 0 0 0 0 0
0 0 0 0 0 1 1 1 0 0 0 1 1 1 1 1 1 1 2 3 3 3 3 3 2 2 1 1 1 1 0 0 0 0 0 0 0 1 1 2 1 1 0 0 0 0 0 0 0
0 0 0 0 1 1 1 0 0 0 1 1 1 1 1 1 1 1 1 1 2 2 2 2 1 1 1 0 0 1 1 0 0 0 0 0 0 0 1 2 1 1 0 0 0 0 0 0 0
0 0 0 0 0 0 0 0 0 0 0 1 1 1 1 1 1 1 1 1 1 1 1 1 1 1 0 0 0 0 0 0 0 0 0 0 0 0 1 1 1 1 0 0 0 0 0 0 0
0 0 0 0 0 0 0 0 0 0 0 0 1 1 1 1 1 1 1 1 1 1 0 0 0 0 0 0 0 0 0 0 0 0 0 0 0 0 0 0 1 1 0 0 0 0 0 0 0
1 1 0 0 0 0 0 0 0 0 0 0 1 1 1 1 1 1 1 1 1 1 1 0 0 0 0 0 0 0 0 0 0 0 0 0 0 0 0 0 1 1 1 0 0 0 0 0 0
1 1 0 0 0 0 0 0 0 0 0 0 1 1 1 1 1 1 1 1 1 1 1 1 1 0 0 0 0 0 0 0 0 0 0 0 0 0 0 0 0 1 1 1 0 0 0 0 0
1 0 0 0 0 0 0 0 0 0 0 0 1 1 1 1 1 1 1 1 1 1 1 1 1 1 1 0 0 0 0 0 0 0 0 0 0 0 0 0 0 1 1 1 0 0 0 0 0
0 0 0 0 0 0 0 0 0 0 0 0 1 1 1 1 1 1 1 1 1 1 1 1 1 1 1 1 1 1 0 0 0 0 0 0 0 0 0 0 0 0 1 1 0 0 0 0 0
0 0 0 0 0 0 0 0 0 0 0 0 0 1 1 1 1 1 1 1 1 1 1 1 1 1 1 1 1 1 1 1 0 0 0 0 0 0 0 0 0 0 0 0 0 0 0 0 0
0 0 0 0 0 0 0 0 0 0 0 0 0 0 1 1 1 1 1 1 1 1 1 1 1 1 1 2 2 2 1 1 1 0 0 0 0 0 0 0 0 0 0 0 0 0 0 0 0
0 0 0 0 0 0 0 0 0 0 0 0 0 0 0 0 1 1 1 2 2 2 1 1 1 2 2 2 2 2 1 1 1 1 1 0 0 0 0 0 0 0 0 0 0 0 0 0 0
Wind_Speed
1 1 2 3 5 5 2 1 1 2 4 4 8 9 7 5 4 5 1 7 8 5 3 5 8 9 10 10 11 11 12 13 13 13 13 12 12 12 12 12 12 12 12 11 11 12 12 12 12
0 1 3 4 5 3 1 1 2 3 6 6 8 7 7 6 4 6 3 7 8 6 4 5 8 9 10 11 11 12 13 13 13 13 13 12 12 12 12 12 12 12 12 12 11 11 11 12 12
0 1 3 4 3 3 2 1 2 3 5 5 5 5 5 4 4 4 5 9 8 6 4 6 9 10 10 11 11 12 12 13 13 13 13 12 12 12 12 12 12 11 11 11 11 11 11 11 11
2 4 4 4 3 2 3 3 3 4 4 5 6 6 4 2 3 5 9 10 9 6 4 5 9 10 11 11 11 12 12 12 13 12 12 12 12 12 12 11 11 11 11 10 10 10 10 10 11
3 4 4 2 0 1 2 2 2 4 3 5 7 6 3 2 7 10 10 9 9 5 4 5 10 10 11 11 11 11 11 12 12 12 11 11 11 11 11 11 11 10 10 10 9 9 9 10 10
4 4 4 2 0 0 1 1 4 5 5 5 7 6 2 2 7 8 9 8 8 7 5 5 10 11 11 11 11 11 11 11 11 11 11 11 10 10 11 10 10 10 9 9 8 8 8 9 9
4 4 3 3 1 0 1 1 4 4 4 3 6 6 3 2 5 7 8 7 7 6 5 3 4 7 10 11 10 10 10 10 10 10 10 10 10 10 10 9 9 9 9 9 8 8 8 8 8
4 4 2 1 2 1 1 2 3 5 4 3 5 8 6 6 6 7 7 6 6 5 5 4 3 4 4 5 9 9 9 9 9 9 9 9 8 8 8 8 8 8 8 8 8 8 8 8 8
4 5 2 2 3 2 1 3 2 4 6 4 3 5 8 9 8 8 7 5 4 5 3 4 3 3 3 3 5 6 7 7 7 6 8 6 3 3 3 5 7 7 7 7 7 8 8 8 7
4 3 3 3 3 3 2 3 3 4 6 5 6 6 9 9 9 8 7 6 5 5 4 4 4 4 3 3 3 2 2 2 3 2 3 2 2 2 3 4 5 6 7 7 7 7 7 5 3
4 4 3 1 2 3 2 2 2 6 4 5 9 10 9 8 7 7 6 6 6 6 5 5 4 4 3 2 2 1 1 1 1 2 3 2 2 2 2 2 3 3 5 4 5 5 3 3 3
3 2 3 2 2 2 3 2 3 4 5 7 11 12 10 9 8 8 7 5 5 6 5 5 5 4 3 3 2 2 1 1 1 2 3 3 2 2 1 1 2 2 2 3 3 3 4 4 4
2 2 2 3 3 3 3 3 3 3 5 8 10 10 9 8 7 6 6 6 6 6 5 5 5 4 3 3 2 2 2 2 2 2 2 3 3 2 2 1 1 2 2 3 3 3 4 4 4
3 3 3 3 3 3 4 2 3 3 8 10 10 9 8 7 6 5 5 5 6 6 6 5 5 4 4 3 2 2 2 2 2 2 2 3 3 3 2 2 2 2 2 2 3 3 3 3 3
2 1 1 1 3 3 4 1 3 6 9 10 9 8 8 7 6 6 7 7 7 7 6 6 6 5 5 4 3 3 2 2 2 2 2 3 3 3 3 2 2 2 2 3 3 3 3 4 4
2 2 1 4 3 3 5 3 4 6 8 9 8 7 6 5 6 6 7 6 6 6 6 6 6 6 5 4 3 3 2 3 2 2 2 3 3 3 3 2 2 2 2 3 3 3 3 3 3
2 1 2 3 3 3 4 4 4 5 8 8 8 7 6 5 4 4 6 6 6 6 6 5 5 5 4 4 3 3 3 3 2 2 2 2 3 3 3 2 2 2 3 3 3 3 3 3 2
3 3 3 4 3 4 4 4 4 5 7 8 7 6 6 6 5 5 6 6 6 6 6 5 4 4 4 3 3 2 3 2 2 2 2 3 3 3 3 3 3 3 3 3 3 3 2 2 2
4 3 3 4 4 3 4 4 5 5 5 6 6 6 7 6 5 5 5 5 5 5 6 5 5 4 4 3 2 2 1 1 1 1 2 3 3 3 4 3 3 3 3 3 3 3 3 2 2
2 2 2 3 2 3 3 4 4 5 7 9 10 9 8 5 4 4 4 4 5 6 6 5 5 5 4 3 2 2 2 1 1 1 2 2 2 3 4 4 3 3 3 3 3 3 2 1 1
2 4 4 3 2 1 2 2 3 2 3 5 7 8 8 9 9 7 6 5 6 6 5 5 5 5 4 4 3 2 2 2 2 1 0 0 2 2 3 4 3 3 3 3 2 3 3 2 1
4 3 3 3 1 2 2 2 5 2 2 4 5 6 7 8 8 8 8 7 7 6 5 5 5 5 4 4 4 4 3 2 2 1 1 0 1 2 2 3 4 3 3 3 2 2 2 3 1
4 3 2 2 2 1 1 2 5 1 3 5 6 7 8 8 9 9 8 8 7 6 6 5 5 4 4 4 5 4 3 2 1 1 1 0 0 1 2 3 3 3 3 3 3 2 2 2 2
2 2 3 3 3 1 4 3 5 4 6 5 5 6 7 7 7 7 6 6 6 5 5 5 5 4 4 5 5 5 5 3 3 2 2 1 0 0 1 2 3 3 3 3 3 3 3 2 2
4 5 3 3 2 4 2 3 6 4 5 7 7 6 6 6 6 6 6 6 6 6 6 5 6 5 5 5 5 5 5 5 4 4 3 2 1 1 1 1 2 2 3 3 3 3 2 2 2
3 7 6 4 3 4 2 2 4 2 2 4 4 5 5 6 6 7 7 7 7 7 7 7 7 6 6 6 5 4 4 3 3 4 3 3 3 2 3 2 2 3 3 3 3 2 2 2 2
3 3 6 5 1 1 3 2 3 2 3 4 5 5 5 5 6 6 5 5 5 6 7 7 8 6 5 5 5 4 4 3 3 3 3 2 2 2 3 2 2 2 3 3 3 2 2 2 2
4 5 4 4 3 2 2 2 3 3 2 2 4 4 4 5 5 4 4 5 5 5 5 5 6 6 5 5 4 4 3 3 3 2 3 3 3 2 3 3 2 2 3 3 3 3 2 3 2
0 2 3 3 4 4 2 5 4 6 5 5 4 4 5 5 5 5 4 4 4 3 3 4 4 4 4 4 4 4 3 3 3 3 3 4 3 3 3 3 3 2 3 3 3 3 3 3 2
3 3 5 4 2 3 3 6 5 2 4 4 3 3 3 4 4 4 4 4 3 3 3 3 3 3 4 4 4 4 3 3 3 3 3 3 3 3 3 3 3 3 3 3 4 4 4 4 4
Wind_Direction
251 93 92 62 55 52 45 310 153 81 60 60 77 83 84 67 88 126 173 126 128 128 116 100 93 87 86 91 91 90 92 90 92 93 93 90 90 90 92 91 90 89 87 87 87 89 89 89 90
27 102 68 60 78 80 358 301 85 102 133 119 84 81 77 69 81 110 114 128 129 125 115 105 99 93 89 89 92 93 93 93 93 91 90 89 89 91 91 90 89 89 87 86 87 88 87 88 89
131 100 82 70 94 146 158 188 137 104 110 103 83 63 77 103 108 120 136 131 120 112 108 114 104 98 94 91 90 95 95 93 93 92 90 88 88 90 92 91 89 90 90 88 88 87 86 87 87
77 51 59 75 103 181 176 193 150 107 74 73 99 73 64 100 128 129 129 124 116 113 111 117 110 105 100 96 95 95 96 95 94 91 89 88 88 89 91 91 90 89 91 90 89 87 85 86 86
70 76 70 66 110 211 197 188 134 105 89 84 93 89 59 35 108 121 126 124 122 120 119 118 111 107 106 102 99 97 97 97 96 95 92 89 89 90 90 90 89 89 87 89 89 86 82 83 84
63 74 92 119 170 286 321 107 94 91 103 106 101 103 92 111 113 126 127 127 128 128 124 121 116 112 109 106 101 98 99 99 98 97 96 94 92 92 92 93 91 89 86 86 86 83 83 83 84
106 97 129 149 137 136 201 136 111 119 111 120 121 107 126 139 134 132 125 127 126 124 121 110 117 114 111 110 106 102 101 102 101 98 97 96 95 95 97 94 93 90 86 83 80 81 84 83 86
132 104 99 146 144 205 218 115 108 108 113 116 109 130 162 180 149 124 119 123 124 122 123 123 116 109 110 110 111 107 104 104 105 104 100 97 94 93 95 94 92 88 86 83 80 80 80 79 83
95 85 140 188 169 195 144 93 71 75 92 81 90 138 157 151 135 120 116 117 132 134 134 136 134 128 126 124 117 111 110 106 104 102 102 93 72 72 81 91 91 88 82 80 78 78 76 77 78
95 125 200 190 163 148 119 114 125 88 80 70 74 92 127 137 136 136 142 149 150 155 163 157 152 149 145 135 113 99 96 89 88 94 98 90 82 67 69 70 76 76 74 70 68 71 71 68 67
133 166 183 179 163 141 126 104 95 113 110 148 145 143 145 140 140 147 154 158 157 159 159 164 169 161 150 131 132 118 91 88 91 101 110 105 86 62 47 41 42 45 59 54 54 54 51 62 70
134 187 174 176 163 133 141 115 86 127 173 163 150 148 145 149 155 160 160 161 149 146 153 154 159 152 153 145 142 133 120 112 106 110 117 109 94 78 65 48 29 36 51 66 61 62 60 66 71
146 194 186 172 143 125 112 121 127 150 145 142 143 143 151 158 163 170 163 153 144 147 152 150 148 147 143 131 133 122 128 130 121 107 110 116 115 114 98 74 52 52 65 78 76 74 71 70 73
179 190 206 183 144 133 127 134 120 170 139 140 143 149 155 159 164 157 153 149 152 150 152 149 141 144 138 132 129 127 131 122 106 99 116 124 127 122 109 87 68 60 71 84 88 87 84 74 78
149 110 287 217 168 162 123 82 190 176 151 152 158 162 159 153 158 165 170 165 162 157 154 155 150 145 144 141 141 129 125 111 98 96 101 107 110 113 111 95 80 70 78 85 83 76 74 73 72
96 70 283 263 180 182 138 218 233 173 158 164 167 166 164 163 164 163 167 166 160 153 153 160 152 144 141 140 130 126 120 108 103 103 92 98 100 103 102 96 88 85 78 80 86 81 80 70 68
61 158 227 271 207 172 152 210 227 173 163 167 168 170 169 167 163 160 164 162 159 156 155 149 138 139 140 130 116 117 112 104 107 108 98 99 97 100 106 107 102 97 86 81 94 81 97 91 72
195 195 216 234 226 161 173 217 212 185 169 166 165 167 165 170 178 166 156 156 156 152 147 140 128 129 127 112 96 87 86 94 99 103 110 109 101 101 99 98 95 93 89 79 91 97 82 93 95
181 186 231 239 216 161 194 216 220 203 178 167 170 176 177 188 186 163 159 152 144 139 134 128 127 131 124 116 122 121 124 128 101 111 120 118 116 115 108 104 101 98 101 105 108 106 88 69 84
189 185 245 272 231 165 193 234 232 204 195 185 182 183 184 186 182 171 150 143 148 151 149 140 138 140 136 140 151 152 146 147 132 108 106 119 125 137 133 127 123 115 108 101 99 104 100 78 76
229 194 206 215 316 35 123 315 289 247 201 187 185 183 180 182 184 177 161 157 154 154 159 153 153 150 142 132 117 93 71 55 45 44 69 144 140 147 140 140 131 127 123 128 128 128 125 132 48
245 232 196 193 140 269 161 238 271 244 180 190 189 185 186 185 179 178 165 162 166 165 159 154 156 147 144 137 135 138 137 149 193 189 199 251 145 139 150 148 140 139 133 136 146 135 135 136 142
222 224 199 205 168 280 288 180 273 248 208 215 200 190 188 184 177 176 172 170 169 164 161 164 161 155 155 150 146 144 141 157 156 129 124 93 55 128 168 154 145 147 146 152 147 136 136 148 156
172 55 28 45 84 245 231 179 265 230 208 203 202 194 185 178 174 172 172 165 164 162 164 166 162 163 163 153 151 152 153 155 143 151 164 170 92 39 123 148 150 154 155 162 166 162 157 161 151
93 89 36 1 1 256 245 174 253 247 205 187 182 183 174 164 164 166 168 172 171 167 170 168 164 169 172 164 167 170 169 165 170 178 180 175 181 217 201 151 166 167 176 176 165 156 162 165 157
190 143 157 191 216 279 321 220 269 290 148 134 137 148 147 155 165 174 178 179 178 176 173 171 174 176 176 175 180 179 178 175 183 187 184 185 193 203 196 169 175 182 178 176 162 155 170 158 157
157 178 170 144 170 262 282 295 324 28 78 102 117 119 145 166 171 178 177 176 176 179 179 175 171 170 178 182 179 180 183 182 188 193 186 183 190 193 188 180 179 190 180 174 164 164 174 157 157
168 153 100 121 159 237 281 257 235 217 190 154 148 156 169 172 168 170 175 180 180 182 179 168 169 175 179 178 181 183 189 190 184 168 183 189 192 184 187 194 184 194 194 180 167 174 168 149 159
114 116 123 140 159 162 224 264 240 203 188 177 185 186 179 173 170 174 178 182 179 173 163 161 165 168 174 179 182 181 191 192 177 180 196 193 189 184 185 190 185 187 192 183 171 179 167 160 165
175 178 148 158 209 168 174 262 288 203 179 170 182 193 191 179 174 167 165 163 160 164 165 169 167 167 179 179 176 184 184 177 178 190 197 184 178 184 185 179 178 187 190 183 178 180 174 169 173